Phoenix, AZ

8:00 AM MST on April 28, 2017 (GMT -0700)
Phoenix Sky Harbor International

Weather History for KPHX - March, 2014

Change the Weather History Date:

Monday, March 17, 2014

  Actual Average Record
Temperature  
Mean Temperature 71 °F 65 °F  
Max Temperature 87 °F 77 °F 99 °F (2007)
Min Temperature 54 °F 54 °F 31 °F (1917)
Degree Days  
Heating Degree Days 0 3  
Month to date heating degree days 7 56  
Since 1 July heating degree days 541 889  
Cooling Degree Days 6 3  
Month to date cooling degree days 60 34  
Year to date cooling degree days 122 51  
Growing Degree Days 20 (Base 50)    
Moisture  
Dew Point 20 °F    
Average Humidity 20    
Maximum Humidity 35    
Minimum Humidity 5    
Precipitation  
Precipitation 0.00 in 0.03 in 0.54 in (1930)
Month to date precipitation 0.99 0.63  
Year to date precipitation 0.99 2.46  
Snow  
Snow 0.00 in - - ()
Month to date snowfall 0.0  
Year to date snowfall 0.0  
Since 1 July snowfall 0.0  
Snow Depth 0.00 in    
Sea Level Pressure  
Sea Level Pressure 29.77 in    
Wind  
Wind Speed 9 mph (SSE)    
Max Wind Speed 22 mph    
Max Gust Speed 27 mph    
Visibility 10 miles    
Events      
T = Trace of Precipitation, MM = Missing Value Source: NWS Daily Summary

Daily Weather History Graph

Daily Weather History Graph

Search for Another Location

Airport or City:

Trip Planner

Search our weather history database for the weather conditions in past years. The results will help you decide how hot, cold, wet, or windy it might be!

Date:

Astronomy

Mar. 17, 2014 Rise Set
Actual Time 6:35 AM MST 6:37 PM MST
Civil Twilight 6:10 AM MST 7:02 PM MST
Nautical Twilight 5:42 AM MST 7:31 PM MST
Astronomical Twilight 5:13 AM MST 8:00 PM MST
Moon 7:52 PM MST (3/17) 6:57 AM MST (3/17)
Length of Visible Light 12h 51m
Length of Day
12h 01m
Full, 99% of the Moon is Illuminated
Mar 17
Full
Mar 23
Last Quarter
Mar 30
New
Apr 7
First Quarter
Apr 15
Full

Hourly Weather History & Observations

Time (MST) Temp. Dew Point Humidity Pressure Visibility Wind Dir Wind Speed Gust Speed Precip Events Conditions
12:51 AM 62.1 °F 30.0 °F 30% 30.02 in 10.0 mi East 9.2 mph - N/A   Clear
1:51 AM 61.0 °F 27.0 °F 27% 29.99 in 10.0 mi ESE 8.1 mph - N/A   Clear
2:51 AM 59.0 °F 28.0 °F 31% 29.98 in 10.0 mi East 8.1 mph - N/A   Clear
3:51 AM 57.0 °F 26.1 °F 30% 29.95 in 10.0 mi East 8.1 mph - N/A   Clear
4:51 AM 55.9 °F 27.0 °F 33% 29.94 in 10.0 mi East 9.2 mph - N/A   Clear
5:51 AM 55.0 °F 28.9 °F 37% 29.94 in 10.0 mi East 8.1 mph - N/A   Mostly Cloudy
6:51 AM 55.0 °F 26.1 °F 33% 29.94 in 10.0 mi East 10.4 mph - N/A   Mostly Cloudy
7:51 AM 57.9 °F 24.1 °F 27% 29.93 in 10.0 mi ESE 9.2 mph - N/A   Mostly Cloudy
8:51 AM 63.0 °F 24.1 °F 23% 29.91 in 10.0 mi ESE 9.2 mph - N/A   Mostly Cloudy
9:51 AM 69.1 °F 23.0 °F 18% 29.89 in 10.0 mi SE 10.4 mph - N/A   Mostly Cloudy
10:51 AM 72.0 °F 21.0 °F 15% 29.88 in 10.0 mi ESE 10.4 mph - N/A   Scattered Clouds
11:51 AM 77.0 °F 21.9 °F 13% 29.83 in 10.0 mi Variable 5.8 mph - N/A   Mostly Cloudy
12:51 PM 80.1 °F 15.1 °F 9% 29.80 in 10.0 mi Variable 4.6 mph - N/A   Mostly Cloudy
1:51 PM 82.9 °F 14.0 °F 8% 29.72 in 10.0 mi Calm Calm - N/A   Mostly Cloudy
2:51 PM 86.0 °F 15.1 °F 7% 29.66 in 10.0 mi South 12.7 mph 19.6 mph N/A   Mostly Cloudy
3:51 PM 87.1 °F 10.0 °F 6% 29.62 in 10.0 mi West 12.7 mph 21.9 mph N/A   Mostly Cloudy
4:51 PM 87.1 °F 10.9 °F 6% 29.59 in 10.0 mi WSW 13.8 mph - N/A   Mostly Cloudy
5:51 PM 84.0 °F 12.0 °F 7% 29.57 in 10.0 mi SW 11.5 mph - N/A   Mostly Cloudy
6:51 PM 82.0 °F 10.0 °F 7% 29.57 in 10.0 mi WSW 11.5 mph - N/A   Mostly Cloudy
7:51 PM 79.0 °F 12.9 °F 8% 29.56 in 10.0 mi WSW 8.1 mph - N/A   Mostly Cloudy
8:51 PM 77.0 °F 15.1 °F 10% 29.56 in 10.0 mi WSW 9.2 mph - N/A   Mostly Cloudy
9:51 PM 75.9 °F 18.0 °F 11% 29.56 in 10.0 mi WSW 5.8 mph - N/A   Mostly Cloudy
10:51 PM 75.9 °F 18.0 °F 11% 29.57 in 10.0 mi WSW 10.4 mph - N/A   Mostly Cloudy
11:51 PM 75.0 °F 18.0 °F 12% 29.57 in 10.0 mi WSW 10.4 mph - N/A   Mostly Cloudy